Heure de lever du soleil au 26-04-2017 / 115 ° de l'année/ semaine 1706 h 41 Heure de coucher du soleil au 26-04-2017 / 115 ° de l'année/ semaine 1720 h 56

Compte Facebook Association Météo Centre     Compte Twitter Association Météo Centre - @AssoMétéoCentre     Chaîne Youtube Association Météo Centre     Bouton contact Association Météo Centre 

Gif alerte météo

Choix de la station :
Période à consulter :
Aujourd'hui


 

Conditions météo à Abbeville - Altitude 77m

  

Date du relevé26/04/2017 à 09:00
Base des nuages300 à 600m
Visibilité20km
Nébulosité5/8 (nuages fragmentés)
Vent7 km/h NNE
Température4.3 °C
Humidité83.2 %
Point de rosée1.7 °C
Pression absolue1006.1 hPa
Pression relative1015 hPa
Variation pression+0.9 hPa en baisse ou stationnaire, puis en hausse plus rapide
Nuages basLa partie supérieure d’au moins un des Cumulonimbus présents est nettement fibreuse ou striée.
Nuages moyensPas d’Altocumulus, d’Altostratus ni de Nimbostratus.
Nuages élevésLa nébulosité des Cirrus en forme de filaments, de brins ou de crochets, considerés dans leur ensemble, est superieure à la nébulosité des Cirrus denses, des Cirrus avec bourgeonnements en forme de petites tours ou de créneaux et des cirrus en flocons, considérés dans leur ensemble.


Historique météo des dernières 24 heures à Abbeville


Date - Heure Base des nuages Visibilité Nébulosité Vent Température Humidité Point rosée Pression Précipitations Temps
26/04 09:00 300 à 600m 20km 5/8 7 km/h NNE 4.3 °C 83.2 % 1.7 °C 1015 hPa
26/04 08:00 300 à 600m 20km 4/8 4 km/h NNO 3.7 °C 86.8 % 1.7 °C 1014.6 hPa 0 mm/12h
26/04 07:00 300 à 600m 20km 6/8 6 km/h NNO 2.8 °C 86 % 0.7 °C 1014.3 hPa
26/04 06:00 300 à 600m 20km 6/8 6 km/h NNO 1.6 °C 87.2 % -0.3 °C 1014.2 hPa
26/04 05:00 20km 0 km/h N 1.6 °C 84.7 % -0.7 °C 1014 hPa
26/04 04:00 20km 2 km/h O 1.5 °C 82.8 % -1.1 °C 1014 hPa
26/04 03:00 20km 2 km/h O 2.8 °C 77.7 % -0.7 °C 1014.2 hPa
26/04 02:00 20km 7 km/h N 3.4 °C 76.1 % -0.4 °C 1014.1 hPa 0 mm/6h
26/04 01:00 20km 7 km/h NNO 3 °C 73.9 % -1.2 °C 1014.3 hPa
26/04 00:00 20km 4 km/h ONO 2.8 °C 69.1 % -2.3 °C 1013.8 hPa
25/04 23:00 20km 2 km/h ONO 3.7 °C 64.8 % -2.3 °C 1013.4 hPa
25/04 22:00 20km 6 km/h NO 5.1 °C 61 % -1.8 °C 1013.3 hPa
25/04 21:00 20km 6 km/h N 7.3 °C 45.8 % -3.6 °C 1012.9 hPa
25/04 20:00 19km 11 km/h NO 9.2 °C 44.1 % -2.4 °C 1012.6 hPa 0 mm/12h
25/04 19:00 20km 11 km/h NO 9.4 °C 32.9 % -6.1 °C 1012.6 hPa
25/04 18:00 20km 11 km/h ONO 9.8 °C 35.9 % -4.6 °C 1012.5 hPa
25/04 17:00 1000 à 1500m 50km 5/8 13 km/h ONO 9.9 °C 37 % -4.1 °C 1012.7 hPa
25/04 16:00 1000 à 1500m 50km 4/8 11 km/h ONO 10.2 °C 36 % -4.2 °C 1012.9 hPa
25/04 15:00 600 à 1000m 50km 4/8 11 km/h ONO 9.9 °C 39.9 % -3.1 °C 1012.9 hPa
25/04 14:00 600 à 1000m 45km 5/8 7 km/h ONO 10 °C 36 % -4.4 °C 1013.2 hPa 0 mm/6h
25/04 13:00 600 à 1000m 45km 3/8 7 km/h ONO 9 °C 39 % -4.2 °C 1013.6 hPa
25/04 12:00 600 à 1000m 40km 3/8 9 km/h NO 8.2 °C 44.1 % -3.3 °C 1013.7 hPa
25/04 11:00 600 à 1000m 35km 6/8 7 km/h NO 7.5 °C 45.9 % -3.4 °C 1013.5 hPa
25/04 10:00 600 à 1000m 35km 6/8 9 km/h NO 6.2 °C 49.8 % -3.5 °C 1013.7 hPa

L'association Météo Centre n'est pas responsable de la mise à jour de ces données.

Météo-Centre.fr depuis 2008
Nos informations ne doivent jamais servir à la protection des biens et des personnes. Elles n'engagent pas la responsabilité de l'association Météo Centre.
Contact - Haut de page - Partenaires - Mentions légales